{"data":{"norad_id":58854,"intl_designator":"2024-019B","name":"STARLINK-31158","alt_names":[],"object_type":"PAYLOAD","status":"ACTIVE","operator":null,"country":"US","launch_date":"2024-01-29","launch_site_code":"AFETR","launch_vehicle":null,"mission":null,"orbit_class":"UNKNOWN","rcs_meters":null,"size_class":null,"mass_kg":null,"dimensions":null,"purposes":["comms"],"wikipedia_slug":null,"has_3d_model":false,"image_url":null,"decayed_at":null,"tle_current":{"epoch":"2026-09-20T22:21:17.044992Z","epoch_age_seconds":115338,"freshness":"FRESH","line1":"1 58854U 24019B   26263.93144728 -.00001056  00000+0 -28876-4 0  9991","line2":"2 58854  43.0001 226.1610 0000817 268.6770  91.3988 15.27570635148945","mean_motion":15.27570635,"eccentricity":8.17e-5,"inclination_deg":43.0001,"raan_deg":226.161,"arg_perigee_deg":268.677,"mean_anomaly_deg":91.3988,"bstar":-2.8876e-5,"rev_number":14894,"period_min":94.267326630038,"perigee_km":482.51657716685,"apogee_km":483.63769955706,"semimajor_km":6861.214138362,"source":"CELESTRAK","updated_at":"2026-09-21T09:00:33.987100Z"}}}